Weather History for Chicago DuPage, IL

Change the Weather History Date:

Monday, April 29, 2013

  Actual Average Record
Temperature  
Mean Temperature 61 °F 54 °F  
Max Temperature 73 °F 66 °F 81 °F (2007)
Min Temperature 48 °F 42 °F 29 °F (2008)
Degree Days  
Heating Degree Days 4 11  
Month to date heating degree days 554 465  
Since 1 July heating degree days 6338 6056  
Cooling Degree Days 0 0  
Month to date cooling degree days 0 0  
Year to date cooling degree days 0 0  
Growing Degree Days 10 (Base 50)    
Moisture  
Dew Point 51 °F    
Average Humidity 72    
Maximum Humidity 100    
Minimum Humidity 48    
Precipitation  
Precipitation 0.00 in 0.16 in 0.40 in (2007)
Month to date precipitation 6.31 3.18  
Year to date precipitation 13.27 8.27  
Sea Level Pressure  
Sea Level Pressure 29.84 in    
Wind  
Wind Speed 12 mph (South)    
Max Wind Speed 22 mph    
Max Gust Speed 28 mph    
Visibility 8 miles    
Events      
T = Trace of Precipitation, MM = Missing Value Source: NWS Daily Summary

Daily Weather History Graph

Daily Weather History Graph

Search for Another Location

Airport:

Trip Planner

Search our weather history database for the weather conditions in past years. The results will help you decide how hot, cold, wet, or windy it might be!

Date:

Astronomy

Apr. 29, 2013 Rise Set
Actual Time 5:51 AM CDT 7:49 PM CDT
Civil Twilight 5:21 AM CDT 8:20 PM CDT
Nautical Twilight 4:44 AM CDT 8:57 PM CDT
Astronomical Twilight 4:04 AM CDT 9:37 PM CDT
Moon No Moon Rise 9:10 AM CDT (4/29)
Length of Visible Light 14h 58m
Length of Day
13h 58m
Waning Gibbous, 80% of the Moon is Illuminated
Apr 29
Waning Gibbous
May 2
Last Quarter
May 9
New
May 17
First Quarter
May 24
Full

Hourly Weather History & Observations

Time (CDT) Temp. Dew Point Humidity Pressure Visibility Wind Dir Wind Speed Gust Speed Precip Events Conditions
12:52 AM 50.0 °F 48.9 °F 96% 29.87 in 4.0 mi South 3.5 mph - N/A   Clear
1:47 AM 48.2 °F 48.2 °F 100% 29.86 in 2.5 mi South 4.6 mph - N/A   Clear
1:52 AM 48.9 °F 48.0 °F 97% 29.86 in 5.0 mi South 4.6 mph - N/A   Clear
2:52 AM 52.0 °F 50.0 °F 93% 29.86 in 5.0 mi SW 6.9 mph - N/A   Clear
3:52 AM 52.0 °F 50.0 °F 93% 29.86 in 6.0 mi WSW 9.2 mph - N/A   Clear
4:52 AM 51.1 °F 48.9 °F 92% 29.87 in 7.0 mi SW 9.2 mph - N/A   Clear
5:52 AM 50.0 °F 48.0 °F 93% 29.89 in 7.0 mi SW 6.9 mph - N/A   Clear
6:52 AM 51.1 °F 48.9 °F 92% 29.92 in 7.0 mi SSW 5.8 mph - N/A   Clear
7:52 AM 55.9 °F 51.1 °F 84% 29.91 in 9.0 mi SSW 9.2 mph - N/A   Clear
8:52 AM 60.1 °F 52.0 °F 75% 29.90 in 10.0 mi SSW 6.9 mph - N/A   Clear
9:52 AM 63.0 °F 52.0 °F 67% 29.89 in 10.0 mi South 8.1 mph - N/A   Clear
10:52 AM 64.9 °F 52.0 °F 63% 29.88 in 10.0 mi South 11.5 mph - N/A   Clear
11:52 AM 68.0 °F 53.1 °F 59% 29.88 in 10.0 mi South 15.0 mph 21.9 mph N/A   Clear
12:52 PM 70.0 °F 53.1 °F 55% 29.86 in 10.0 mi South 16.1 mph 20.7 mph N/A   Clear
1:52 PM 70.0 °F 51.1 °F 51% 29.84 in 10.0 mi South 17.3 mph - N/A   Clear
2:52 PM 72.0 °F 51.1 °F 48% 29.82 in 10.0 mi South 16.1 mph - N/A   Partly Cloudy
3:52 PM 72.0 °F 52.0 °F 49% 29.80 in 10.0 mi SSE 13.8 mph - N/A   Clear
4:52 PM 73.0 °F 53.1 °F 49% 29.78 in 10.0 mi South 18.4 mph - N/A   Clear
5:52 PM 72.0 °F 52.0 °F 49% 29.77 in 10.0 mi SSE 18.4 mph 24.2 mph N/A   Clear
6:52 PM 70.0 °F 53.1 °F 55% 29.77 in 10.0 mi South 17.3 mph 24.2 mph N/A   Clear
7:52 PM 68.0 °F 54.0 °F 61% 29.77 in 10.0 mi SSE 15.0 mph 24.2 mph N/A   Clear
8:52 PM 66.0 °F 55.0 °F 68% 29.79 in 10.0 mi South 11.5 mph 20.7 mph N/A   Clear
9:52 PM 64.9 °F 54.0 °F 68% 29.81 in 10.0 mi South 12.7 mph - N/A   Clear
11:52 PM 63.0 °F 54.0 °F 72% 29.79 in 10.0 mi South 13.8 mph - N/A   Clear